This demonstration page uses our WeatherBlox Daily Observations layout. Learn more.

Left ArrowRight Arrow

40.92501, -98.34201

Hourly Observations for May 26, 2020

Temp ( °F °C ) Dew Point ( °F °C ) Humidity (%) Winds ( mph kmh ) Pressure ( in mb ) Visibility ( mi km ) Precip ( " mm )
12:53 am 00:53 Clear 56 13.3 52 11.1 87 87 NNW 8 13 29.97 1015 10 16 0.00 0.00
1:53 am 01:53 Partly Cloudy 56 13.3 51 10.6 84 84 NNW 9 15 29.96 1015 10 16 0.00 0.00
2:53 am 02:53 Clear 53 11.7 50 10 89 89 NW 7 11 29.95 1014 10 16 0.00 0.00
3:53 am 03:53 Clear 54 12.2 51 10.6 90 90 NW 10 17 29.94 1014 10 16 0.00 0.00
4:53 am 04:53 Clear 54 12.2 51 10.6 90 90 NNW 8 13 29.93 1014 10 16 0.00 0.00
5:53 am 05:53 Clear 54 12.2 50 10 87 87 NW 10 17 29.93 1013 10 16 0.00 0.00
6:53 am 06:53 Mostly Sunny 54 12.2 50 10 87 87 NW 14 22 29.93 1014 10 16 0.00 0.00
7:53 am 07:53 Cloudy 54 12.2 50 10 87 87 NNW 12 19 29.93 1014 10 16 0.00 0.00
8:53 am 08:53 Mostly Cloudy 56 13.3 51 10.6 84 84 NW 13 20 29.93 1014 10 16 0.00 0.00
9:53 am 09:53 Partly Cloudy 58 14.4 51 10.6 78 78 NNW 14 22 29.92 1013 10 16 0.00 0.00
10:53 am 10:53 Cloudy 61 16.1 51 10.6 70 70 NW 14 22 29.93 1013 10 16 0.00 0.00
11:53 am 11:53 Cloudy 65 18.3 51 10.6 61 61 N 17 28 29.90 1013 10 16 0.00 0.00
12:53 pm 12:53 Mostly Cloudy 69 20.6 51 10.6 53 53 NNW 16 26 29.88 1012 10 16 0.00 0.00
1:53 pm 13:53 Mostly Cloudy 70 21.1 51 10.6 51 51 N 16 26 29.87 1012 10 16 0.00 0.00
2:53 pm 14:53 Mostly Cloudy 71 21.7 53 11.7 53 53 N 14 22 29.87 1011 10 16 0.00 0.00
3:53 pm 15:53 Mostly Sunny 71 21.7 52 11.1 51 51 N 16 26 29.85 1011 10 16 0.00 0.00
4:53 pm 16:53 Mostly Sunny 73 22.8 54 12.2 51 51 N 16 26 29.85 1011 10 16 0.00 0.00
5:53 pm 17:53 Sunny 72 22.2 52 11.1 50 50 N 14 22 29.85 1011 10 16 0.00 0.00
6:53 pm 18:53 Sunny 71 21.7 53 11.7 53 53 NNE 10 17 29.85 1011 10 16 0.00 0.00
7:53 pm 19:53 Sunny 68 20 55 12.8 63 63 N 7 11 29.86 1011 10 16 0.00 0.00
8:53 pm 20:53 Sunny 64 17.8 57 13.9 78 78 NNE 3 6 29.88 1012 10 16 0.00 0.00
9:53 pm 21:53 Clear 62 16.7 55 12.8 78 78 Calm 29.90 1012 10 16 0.00 0.00
10:53 pm 22:53 Clear 60 15.6 56 13.3 86 86 Calm 29.91 1013 10 16 0.00 0.00
11:53 pm 23:53 Clear 58 14.4 54 12.2 87 87 Calm 29.91 1013 10 16 0.00 0.00

Powered by AerisWeather